Location: Dana
(41.8364°N, 106.7042°W)
Time: 14:55:17
(UTC+00:00)

Transit 2A - Pass Details

Date: 13 May 2026
Orbit: 595 x 948 km, 66.7° (Epoch: 8 June)

Event Time Altitude Azimuth Distance (km) Brightness Sun altitude
Rises 23:10:09 0° 211° (SSW) 3,597 9.9 33.2°
Reaches altitude 10° 23:12:44 10° 212° (SSW) 2,641 9.3 32.7°
Maximum altitude 23:18:57 82° 300° (WNW) 915 7.1 31.5°
Drops below altitude 10° 23:24:48 10° 29° (NNE) 2,488 8.5 30.4°
Sets 23:27:10 0° 30° (NNE) 3,377 9.1 30.0°
